| time (UTC) | temp F | wind direction | speed MPH | gust MPH | rain 1hr in | rain 24hr in | rain mn in | humidity % | barometer mb |
| 20260506013217 | 32 | 0.0 | 0.0 | 0.00 | 0.00 | 0.00 | 90 | 1013.9 | |
| 20260506012216 | 32 | 0.0 | 0.0 | 0.00 | 0.00 | 0.00 | 89 | 1013.9 | |
| 20260506011216 | 32 | 0.0 | 0.0 | 0.00 | 0.00 | 0.00 | 89 | 1013.8 | |
| 20260506010216 | 32 | 0.0 | 0.0 | 0.00 | 0.00 | 0.00 | 88 | 1013.9 | |
| 20260506005217 | 32 | 0.0 | 0.0 | 0.00 | 0.00 | 0.00 | 88 | 1013.8 | |
| 20260506004217 | 32 | 0.0 | 0.0 | 0.00 | 0.00 | 0.00 | 88 | 1014.0 | |
| 20260506003217 | 33 | 0.0 | 0.0 | 0.00 | 0.00 | 0.00 | 87 | 1014.0 | |
| 20260506002216 | 33 | 0.0 | 0.0 | 0.00 | 0.00 | 0.00 | 87 | 1014.1 | |
| 20260506001217 | 33 | 0.0 | 0.0 | 0.00 | 0.00 | 0.00 | 87 | 1013.9 | |
| 20260506000219 | 34 | 0.0 | 0.0 | 0.00 | 0.00 | 0.00 | 87 | 1013.9 | |
| 20260505235257 | 34 | 0.0 | 0.0 | 0.00 | 0.00 | 0.00 | 87 | 1013.9 | |
| 20260505234216 | 34 | 0.0 | 0.0 | 0.00 | 0.00 | 0.00 | 87 | 1013.9 | |
| 20260505233217 | 34 | 0.0 | 0.0 | 0.00 | 0.00 | 0.00 | 86 | 1013.9 | |
| 20260505232237 | 34 | 0.0 | 0.0 | 0.00 | 0.00 | 0.00 | 87 | 1013.8 | |
| 20260505231217 | 34 | 0.0 | 0.0 | 0.00 | 0.00 | 0.00 | 86 | 1013.9 | |
| 20260505230217 | 34 | 0.0 | 0.0 | 0.00 | 0.00 | 0.00 | 86 | 1013.9 | |
| 20260505225216 | 34 | 0.0 | 0.0 | 0.00 | 0.00 | 0.00 | 85 | 1013.9 | |
| 20260505224217 | 34 | 0.0 | 0.0 | 0.00 | 0.00 | 0.00 | 84 | 1013.9 | |
| 20260505223216 | 35 | 0.0 | 0.0 | 0.00 | 0.00 | 0.00 | 83 | 1013.9 | |
| 20260505222216 | 35 | 0.0 | 0.0 | 0.00 | 0.00 | 0.00 | 82 | 1014.0 | |
| 20260505221216 | 36 | 0.0 | 0.0 | 0.00 | 0.00 | 0.00 | 81 | 1013.9 | |
| 20260505220217 | 36 | 0.0 | 0.0 | 0.00 | 0.00 | 0.00 | 81 | 1013.9 | |
| 20260505215216 | 37 | 0.0 | 0.0 | 0.00 | 0.00 | 0.00 | 80 | 1013.9 | |
| 20260505214217 | 37 | 0.0 | 0.0 | 0.00 | 0.00 | 0.00 | 80 | 1013.9 | |
| 20260505213217 | 37 | 0.0 | 0.0 | 0.00 | 0.00 | 0.00 | 79 | 1013.9 | |
| 20260505212217 | 37 | 0.0 | 0.0 | 0.00 | 0.00 | 0.00 | 78 | 1014.0 | |
| 20260505211237 | 38 | 0.0 | 0.0 | 0.00 | 0.00 | 0.00 | 78 | 1014.0 | |
| 20260505210216 | 38 | 0.0 | 0.0 | 0.00 | 0.00 | 0.00 | 77 | 1013.8 | |
| 20260505205217 | 38 | 0.0 | 0.0 | 0.00 | 0.00 | 0.00 | 76 | 1013.9 | |
| 20260505204216 | 39 | 0.0 | 0.0 | 0.00 | 0.00 | 0.00 | 76 | 1013.9 | |
| 20260505203217 | 39 | 0.0 | 0.0 | 0.00 | 0.00 | 0.00 | 75 | 1013.8 | |
| 20260505202217 | 39 | 0.0 | 0.0 | 0.00 | 0.00 | 0.00 | 75 | 1013.8 | |
| 20260505201216 | 39 | 0.0 | 0.0 | 0.00 | 0.00 | 0.00 | 75 | 1013.8 | |
| 20260505200257 | 40 | 0.0 | 0.0 | 0.00 | 0.00 | 0.00 | 75 | 1013.8 | |
| 20260505195217 | 40 | 0.0 | 0.0 | 0.00 | 0.00 | 0.00 | 75 | 1013.7 | |
| 20260505194217 | 40 | 0.0 | 0.0 | 0.00 | 0.00 | 0.00 | 76 | 1013.6 | |
| 20260505193216 | 40 | 0.0 | 0.0 | 0.00 | 0.00 | 0.00 | 76 | 1013.7 | |
| 20260505192217 | 41 | 0.0 | 0.0 | 0.00 | 0.00 | 0.00 | 75 | 1013.7 | |
| 20260505191216 | 41 | 0.0 | 0.0 | 0.00 | 0.00 | 0.00 | 73 | 1013.6 | |
| 20260505190217 | 42 | 0.0 | 0.0 | 0.00 | 0.00 | 0.00 | 72 | 1013.6 | |
| 20260505185216 | 43 | 0.0 | 0.0 | 0.00 | 0.00 | 0.00 | 70 | 1013.4 | |
| 20260505184216 | 44 | 0.0 | 0.0 | 0.00 | 0.00 | 0.00 | 68 | 1013.4 | |
| 20260505183217 | 43 | 0.0 | 0.0 | 0.00 | 0.00 | 0.00 | 67 | 1013.3 | |
| 20260505182217 | 43 | 0.0 | 0.0 | 0.00 | 0.00 | 0.00 | 66 | 1013.2 | |
| 20260505181216 | 43 | 0.0 | 0.0 | 0.00 | 0.00 | 0.00 | 65 | 1013.2 | |
| 20260505180216 | 43 | 0.0 | 0.0 | 0.00 | 0.00 | 0.00 | 65 | 1013.2 | |
| 20260505175217 | 43 | 0.0 | 0.0 | 0.00 | 0.00 | 0.00 | 67 | 1013.2 | |
| 20260505174217 | 43 | 0.0 | 0.0 | 0.00 | 0.00 | 0.00 | 64 | 1013.2 | |
| 20260505173216 | 45 | 0.0 | 0.0 | 0.00 | 0.00 | 0.00 | 64 | 1013.2 | |
| 20260505172216 | 45 | 0.0 | 0.0 | 0.00 | 0.00 | 0.00 | 65 | 1013.2 | |
| 20260505171216 | 45 | 0.0 | 0.0 | 0.00 | 0.00 | 0.00 | 65 | 1013.2 | |
| 20260505170217 | 46 | 0.0 | 0.0 | 0.00 | 0.00 | 0.00 | 66 | 1013.2 | |
| 20260505165236 | 45 | 0.0 | 0.0 | 0.00 | 0.00 | 0.00 | 67 | 1013.1 | |
| 20260505164237 | 45 | 0.0 | 0.0 | 0.00 | 0.00 | 0.00 | 65 | 1013.1 | |
| 20260505163217 | 44 | 0.0 | 0.0 | 0.00 | 0.00 | 0.00 | 65 | 1013.1 | |
| 20260505162216 | 44 | 0.0 | 0.0 | 0.00 | 0.00 | 0.00 | 63 | 1013.1 | |
| 20260505161217 | 44 | 0.0 | 0.0 | 0.00 | 0.00 | 0.00 | 61 | 1013.1 | |
| 20260505160217 | 44 | 0.0 | 0.0 | 0.00 | 0.00 | 0.00 | 62 | 1013.1 | |
| 20260505153236 | 45 | 0.0 | 0.0 | 0.00 | 0.00 | 0.00 | 63 | 1013.0 | |
| 20260505152216 | 46 | 0.0 | 0.0 | 0.00 | 0.00 | 0.00 | 64 | 1013.1 | |
| 20260505151217 | 45 | 0.0 | 0.0 | 0.00 | 0.00 | 0.00 | 68 | 1013.1 | |
| 20260505150216 | 45 | 0.0 | 0.0 | 0.00 | 0.00 | 0.00 | 67 | 1013.1 | |
| 20260505140216 | 45 | 0.0 | 0.0 | 0.00 | 0.00 | 0.00 | 67 | 1013.2 | |
| 20260505130217 | 46 | 0.0 | 0.0 | 0.00 | 0.00 | 0.00 | 64 | 1013.1 | |
| 20260505124216 | 45 | 0.0 | 0.0 | 0.00 | 0.00 | 0.00 | 62 | 1013.1 | |
| 20260505123237 | 45 | 0.0 | 0.0 | 0.00 | 0.00 | 0.00 | 62 | 1013.0 | |
| 20260505122217 | 45 | 0.0 | 0.0 | 0.00 | 0.00 | 0.00 | 63 | 1013.1 | |
| 20260505121216 | 46 | 0.0 | 0.0 | 0.00 | 0.00 | 0.00 | 61 | 1013.1 | |
| 20260505120216 | 46 | 0.0 | 0.0 | 0.00 | 0.00 | 0.00 | 61 | 1013.0 | |
| 20260505115217 | 47 | 0.0 | 0.0 | 0.00 | 0.00 | 0.00 | 61 | 1013.0 | |
| 20260505114216 | 47 | 0.0 | 0.0 | 0.00 | 0.00 | 0.00 | 61 | 1013.0 | |
| 20260505113216 | 47 | 0.0 | 0.0 | 0.00 | 0.00 | 0.00 | 61 | 1012.9 | |
| 20260505112236 | 47 | 0.0 | 0.0 | 0.00 | 0.00 | 0.00 | 61 | 1012.9 | |
| 20260505111237 | 47 | 0.0 | 0.0 | 0.00 | 0.00 | 0.00 | 62 | 1012.9 | |
| 20260505110237 | 46 | 0.0 | 0.0 | 0.00 | 0.00 | 0.00 | 62 | 1012.8 | |
| 20260505102217 | 44 | 0.0 | 0.0 | 0.00 | 0.00 | 0.00 | 63 | 1012.9 | |
| 20260505101216 | 44 | 0.0 | 0.0 | 0.00 | 0.00 | 0.00 | 64 | 1013.0 | |
| 20260505100217 | 44 | 0.0 | 0.0 | 0.00 | 0.00 | 0.00 | 63 | 1012.9 | |
| 20260505095216 | 44 | 0.0 | 0.0 | 0.00 | 0.00 | 0.00 | 63 | 1012.7 | |
| 20260505094216 | 44 | 0.0 | 0.0 | 0.00 | 0.00 | 0.00 | 63 | 1012.9 | |
| 20260505093216 | 44 | 0.0 | 0.0 | 0.00 | 0.00 | 0.00 | 63 | 1012.8 | |
| 20260505092236 | 45 | 0.0 | 0.0 | 0.00 | 0.00 | 0.00 | 61 | 1012.7 | |
| 20260505091217 | 45 | 0.0 | 0.0 | 0.00 | 0.00 | 0.00 | 63 | 1012.7 | |
| 20260505090216 | 44 | 0.0 | 0.0 | 0.00 | 0.00 | 0.00 | 62 | 1012.5 | |
| 20260505085216 | 44 | 0.0 | 0.0 | 0.00 | 0.00 | 0.00 | 63 | 1012.6 | |
| 20260505084216 | 43 | 0.0 | 0.0 | 0.00 | 0.00 | 0.00 | 65 | 1012.5 | |
| 20260505083217 | 43 | 0.0 | 0.0 | 0.00 | 0.00 | 0.00 | 66 | 1012.6 | |
| 20260505082217 | 42 | 0.0 | 0.0 | 0.00 | 0.00 | 0.00 | 67 | 1012.5 | |
| 20260505081216 | 42 | 0.0 | 0.0 | 0.00 | 0.00 | 0.00 | 68 | 1012.5 | |
| 20260505080236 | 42 | 0.0 | 0.0 | 0.00 | 0.00 | 0.00 | 67 | 1012.5 | |
| 20260505075216 | 42 | 0.0 | 0.0 | 0.00 | 0.00 | 0.00 | 66 | 1012.4 | |
| 20260505074216 | 42 | 0.0 | 0.0 | 0.00 | 0.00 | 0.00 | 65 | 1012.4 | |
| 20260505073216 | 42 | 0.0 | 0.0 | 0.00 | 0.00 | 0.00 | 67 | 1012.4 | |
| 20260505072216 | 41 | 0.0 | 0.0 | 0.00 | 0.00 | 0.00 | 68 | 1012.3 | |
| 20260505071216 | 41 | 0.0 | 0.0 | 0.00 | 0.00 | 0.00 | 71 | 1012.4 | |
| 20260505070236 | 42 | 0.0 | 0.0 | 0.00 | 0.00 | 0.00 | 73 | 1012.3 | |
| 20260505065236 | 41 | 0.0 | 0.0 | 0.00 | 0.00 | 0.00 | 75 | 1012.4 | |
| 20260505064237 | 40 | 0.0 | 0.0 | 0.00 | 0.00 | 0.00 | 74 | 1012.4 | |
| 20260505063217 | 40 | 0.0 | 0.0 | 0.00 | 0.00 | 0.00 | 76 | 1012.4 | |
| 20260505062216 | 40 | 0.0 | 0.0 | 0.00 | 0.00 | 0.00 | 77 | 1012.4 | |
| 20260505061217 | 40 | 0.0 | 0.0 | 0.00 | 0.00 | 0.00 | 80 | 1012.5 | |
| 20260505060237 | 39 | 0.0 | 0.0 | 0.00 | 0.00 | 0.00 | 85 | 1012.5 | |
| 20260505055216 | 37 | 0.0 | 0.0 | 0.00 | 0.00 | 0.00 | 90 | 1012.6 | |
| 20260505054236 | 35 | 0.0 | 0.0 | 0.00 | 0.00 | 0.00 | 93 | 1012.5 | |
| 20260505053237 | 34 | 0.0 | 0.0 | 0.00 | 0.00 | 0.00 | 92 | 1012.5 | |
| 20260505052216 | 34 | 0.0 | 0.0 | 0.00 | 0.00 | 0.00 | 92 | 1012.5 | |
| 20260505051216 | 33 | 0.0 | 0.0 | 0.00 | 0.00 | 0.00 | 92 | 1012.6 | |
| 20260505050216 | 33 | 0.0 | 0.0 | 0.00 | 0.00 | 0.00 | 92 | 1012.4 | |
| 20260505041216 | 32 | 0.0 | 0.0 | 0.00 | 0.00 | 0.00 | 93 | 1011.7 | |
| 20260505040217 | 31 | 0.0 | 0.0 | 0.00 | 0.00 | 0.00 | 93 | 1011.5 | |
| 20260505035216 | 31 | 0.0 | 0.0 | 0.00 | 0.00 | 0.00 | 92 | 1011.9 | |
| 20260505034236 | 30 | 0.0 | 0.0 | 0.00 | 0.00 | 0.00 | 92 | 1011.9 | |
| 20260505033216 | 30 | 0.0 | 0.0 | 0.00 | 0.00 | 0.00 | 92 | 1011.9 | |
| 20260505032216 | 30 | 0.0 | 0.0 | 0.00 | 0.00 | 0.00 | 92 | 1012.0 | |
| 20260505031216 | 31 | 0.0 | 0.0 | 0.00 | 0.00 | 0.00 | 92 | 1012.0 | |
| 20260505030216 | 31 | 0.0 | 0.0 | 0.00 | 0.00 | 0.00 | 92 | 1012.0 | |
| 20260505025216 | 31 | 0.0 | 0.0 | 0.00 | 0.00 | 0.00 | 92 | 1012.0 | |
| 20260505024237 | 31 | 0.0 | 0.0 | 0.00 | 0.00 | 0.00 | 92 | 1012.0 | |
| 20260505023216 | 31 | 0.0 | 0.0 | 0.00 | 0.00 | 0.00 | 91 | 1011.9 | |
| 20260505022216 | 32 | 0.0 | 0.0 | 0.00 | 0.00 | 0.00 | 92 | 1011.8 | |
| 20260505021216 | 31 | 0.0 | 0.0 | 0.00 | 0.00 | 0.00 | 92 | 1012.0 | |
| 20260505020216 | 31 | 0.0 | 0.0 | 0.00 | 0.00 | 0.00 | 91 | 1011.8 | |
| 20260505015217 | 32 | 0.0 | 0.0 | 0.00 | 0.00 | 0.00 | 91 | 1011.9 | |
| 20260505014217 | 32 | 0.0 | 0.0 | 0.00 | 0.00 | 0.00 | 91 | 1011.9 |